TimeEST,TemperatureF,Dew PointF,Humidity,Sea Level PressureIn,VisibilityMPH,Wind Direction,Wind SpeedMPH,Gust SpeedMPH,PrecipitationIn,Events,Conditions,WindDirDegrees,DateUTC
12:19 AM,33.8,32.0,93,29.98,1.8,Calm,Calm,-,N/A,,Overcast,0,2013-01-29 05:19:00
12:26 AM,33.8,33.8,100,29.97,2.0,Calm,Calm,-,N/A,,Overcast,0,2013-01-29 05:26:00
12:41 AM,33.8,32.0,93,29.97,2.0,Calm,Calm,-,N/A,,Overcast,0,2013-01-29 05:41:00
12:56 AM,33.1,32.0,96,29.98,2.0,Calm,Calm,-,N/A,,Overcast,0,2013-01-29 05:56:00
1:40 AM,33.8,32.0,93,29.99,3.0,Calm,Calm,-,0.00,Rain,Light Rain,0,2013-01-29 06:40:00
1:56 AM,33.1,32.0,96,30.00,4.0,Calm,Calm,-,0.00,Rain,Light Rain,0,2013-01-29 06:56:00
2:27 AM,33.8,32.0,93,29.99,2.0,North,3.5,-,N/A,,Overcast,350,2013-01-29 07:27:00
2:34 AM,33.8,32.0,93,29.99,1.8,Calm,Calm,-,N/A,,Overcast,0,2013-01-29 07:34:00
2:56 AM,33.1,33.1,100,30.00,1.0,Calm,Calm,-,N/A,,Mist,0,2013-01-29 07:56:00
3:05 AM,33.8,33.8,100,30.00,0.8,Calm,Calm,-,N/A,,Mist,0,2013-01-29 08:05:00
3:56 AM,33.1,32.0,96,30.01,1.0,NNW,3.5,-,N/A,,Mist,340,2013-01-29 08:56:00
4:04 AM,33.8,33.8,100,30.00,0.8,North,3.5,-,N/A,,Overcast,350,2013-01-29 09:04:00
4:29 AM,33.8,33.8,100,30.01,0.8,NNW,4.6,-,N/A,,Mist,340,2013-01-29 09:29:00
4:56 AM,34.0,34.0,100,30.03,0.5,NNW,3.5,-,N/A,Fog,Fog,340,2013-01-29 09:56:00
5:23 AM,33.8,33.8,100,30.03,1.8,NNW,3.5,-,N/A,,Overcast,330,2013-01-29 10:23:00
5:45 AM,33.8,33.8,100,30.04,3.0,NNW,5.8,-,N/A,,Overcast,340,2013-01-29 10:45:00
5:56 AM,34.0,33.1,96,30.05,5.0,NNW,5.8,-,N/A,,Overcast,340,2013-01-29 10:56:00
6:16 AM,33.8,33.8,100,30.05,2.5,NNW,4.6,-,N/A,,Overcast,330,2013-01-29 11:16:00
6:56 AM,34.0,33.1,96,30.06,7.0,NNW,4.6,-,N/A,,Overcast,330,2013-01-29 11:56:00
7:56 AM,33.1,33.1,100,30.10,6.0,NW,6.9,-,N/A,,Overcast,320,2013-01-29 12:56:00
8:14 AM,33.8,33.8,100,30.10,7.0,NNW,6.9,-,N/A,,Overcast,330,2013-01-29 13:14:00
8:56 AM,34.0,33.1,96,30.12,6.0,NNW,6.9,-,N/A,,Overcast,330,2013-01-29 13:56:00
9:17 AM,33.8,33.8,100,30.12,7.0,NNW,8.1,-,N/A,,Overcast,330,2013-01-29 14:17:00
9:51 AM,33.8,33.8,100,30.12,6.0,North,6.9,-,N/A,,Overcast,350,2013-01-29 14:51:00
9:56 AM,34.0,33.1,96,30.13,6.0,North,6.9,-,N/A,,Overcast,350,2013-01-29 14:56:00
10:56 AM,35.1,33.1,92,30.14,7.0,NNW,5.8,-,N/A,,Overcast,330,2013-01-29 15:56:00
11:56 AM,36.0,34.0,93,30.14,4.0,NNW,5.8,-,N/A,,Overcast,330,2013-01-29 16:56:00
12:56 PM,36.0,35.1,97,30.13,3.0,North,5.8,-,N/A,,Overcast,350,2013-01-29 17:56:00
1:33 PM,35.6,35.6,100,30.13,1.2,NNW,5.8,-,N/A,,Overcast,330,2013-01-29 18:33:00
1:46 PM,37.4,35.6,93,30.12,1.2,NNW,4.6,-,N/A,,Overcast,340,2013-01-29 18:46:00
1:56 PM,37.0,36.0,96,30.13,1.5,NNW,4.6,-,N/A,,Overcast,340,2013-01-29 18:56:00
2:56 PM,36.0,36.0,100,30.16,1.5,NW,4.6,-,N/A,,Overcast,320,2013-01-29 19:56:00
3:56 PM,36.0,35.1,97,30.16,1.0,NNW,3.5,-,N/A,,Overcast,340,2013-01-29 20:56:00
4:56 PM,35.1,35.1,100,30.17,2.0,Calm,Calm,-,N/A,,Overcast,0,2013-01-29 21:56:00
5:23 PM,35.6,35.6,100,30.16,1.2,Calm,Calm,-,N/A,,Overcast,0,2013-01-29 22:23:00
5:56 PM,35.1,35.1,100,30.18,1.0,Calm,Calm,-,N/A,,Overcast,0,2013-01-29 22:56:00
6:56 PM,35.1,34.0,96,30.18,1.2,Calm,Calm,-,N/A,,Overcast,0,2013-01-29 23:56:00
7:09 PM,35.6,35.6,100,30.16,0.8,Calm,Calm,-,N/A,,Overcast,0,2013-01-30 00:09:00
7:56 PM,35.1,35.1,100,30.20,0.5,Calm,Calm,-,N/A,Fog,Fog,0,2013-01-30 00:56:00
8:18 PM,35.6,35.6,100,30.18,0.5,Calm,Calm,-,N/A,Fog,Fog,0,2013-01-30 01:18:00
8:32 PM,35.6,35.6,100,30.18,1.8,SSE,3.5,-,N/A,,Overcast,150,2013-01-30 01:32:00
8:35 PM,35.6,35.6,100,30.17,3.0,SSE,4.6,-,N/A,,Overcast,160,2013-01-30 01:35:00
8:56 PM,36.0,36.0,100,30.19,10.0,Variable,3.5,-,N/A,,Overcast,0,2013-01-30 01:56:00
9:56 PM,36.0,36.0,100,30.18,10.0,Calm,Calm,-,N/A,,Overcast,0,2013-01-30 02:56:00
10:56 PM,37.0,36.0,96,30.15,10.0,SE,5.8,-,0.00,,Overcast,140,2013-01-30 03:56:00
11:56 PM,37.9,36.0,93,30.15,6.0,SE,6.9,-,0.03,Rain,Light Rain,140,2013-01-30 04:56:00